Theta_e
316 320 319 320 322 324 326 327 326 326 328 320 318 319 320 322 321 323 323 322 323 321 320 321 321 321 320 321 321 321 321 321 322 320 324 338 329 323 334 333 335 337 339 343 339 334 333 333 334 338 341 342 342 342 342 342 341 341 340 340 339 337 337 337 337 337 339 338 338 338 339 338 337 338 337 336 336 336 336 336 337 336 336 338 339 340 341 340 340 340 339 338 336 336 334 332 332
319 325 324 323 324 325 328 326 322 322 322 317 316 319 319 321 322 323 322 321 322 321 321 321 321 321 320 321 320 321 322 321 321 322 329 333 326 326 333 331 334 336 340 344 338 334 333 333 334 337 340 340 341 341 342 341 341 340 340 339 337 337 337 338 338 338 339 338 338 338 339 338 336 338 338 337 337 337 336 334 335 335 336 338 339 339 340 340 339 339 338 336 336 336 335 333 332
318 323 324 324 325 325 327 325 323 320 318 315 315 320 321 321 322 321 320 320 322 321 321 320 321 321 320 321 320 322 322 322 321 320 328 331 331 329 326 328 333 335 340 344 339 334 333 333 334 336 340 340 340 341 342 341 340 340 339 339 337 338 338 338 339 338 339 338 339 339 338 338 337 338 338 337 337 337 335 334 334 336 337 339 340 339 340 339 338 338 337 335 335 335 335 334 333
318 323 324 324 327 327 328 326 325 320 316 315 313 320 321 320 321 321 320 321 323 321 320 321 322 321 320 322 320 321 320 321 321 320 328 330 334 331 323 324 332 336 338 344 341 335 333 333 333 335 339 341 341 340 341 341 339 339 339 339 338 338 338 339 339 339 339 339 338 338 338 339 338 338 338 337 337 336 335 335 336 337 338 338 339 339 339 338 337 337 335 333 334 334 334 335 334
322 326 323 323 327 326 327 324 322 319 316 317 315 320 321 319 320 320 320 321 323 321 320 321 322 321 320 321 320 321 320 322 321 319 327 330 332 330 324 321 330 336 337 344 342 336 334 333 332 334 337 340 341 340 340 340 339 339 339 338 338 338 338 339 339 339 339 339 338 338 339 339 339 339 338 338 338 336 336 336 337 338 338 338 338 338 337 337 336 336 334 332 333 333 332 333 334
325 327 322 322 326 324 324 320 319 318 319 322 319 320 320 319 319 319 320 321 322 321 320 320 321 321 320 321 321 321 321 320 321 322 325 330 329 326 325 321 328 335 335 341 343 338 335 334 333 332 335 338 340 340 340 340 339 339 339 338 338 338 338 338 339 339 339 338 337 339 339 339 340 339 339 339 338 336 335 337 337 337 338 338 337 336 336 335 334 334 333 331 331 331 330 332 332
324 327 326 323 324 321 321 319 319 320 321 324 320 320 319 318 320 319 320 321 322 321 320 321 320 320 321 321 321 321 322 318 323 327 325 325 324 323 324 322 327 335 336 338 343 340 337 337 334 332 333 336 339 339 339 339 340 340 339 339 339 339 338 338 338 338 338 339 339 340 340 340 340 339 339 338 338 336 335 336 336 336 336 336 336 335 334 334 333 332 332 330 330 329 329 329 327
322 327 327 323 326 324 322 321 322 322 321 322 320 320 319 319 320 320 321 321 321 322 321 321 320 321 321 320 321 322 322 319 322 325 322 320 320 322 323 325 327 333 336 337 342 342 340 339 337 335 333 335 338 338 338 338 339 340 339 339 339 339 339 337 337 337 338 339 340 340 340 340 339 339 338 337 337 336 335 335 335 335 335 335 334 334 333 332 332 331 330 329 328 327 327 325 319
322 325 325 323 326 325 323 324 324 323 322 322 320 319 319 319 320 320 320 321 321 321 321 321 320 320 321 320 321 323 323 320 319 319 319 317 319 320 322 329 329 330 336 336 339 342 341 341 339 336 334 335 338 338 338 337 338 340 340 339 338 338 338 337 336 336 338 340 340 340 340 340 339 339 338 337 336 335 334 333 333 333 333 333 333 332 331 330 330 330 329 327 326 325 323 317 308
324 324 325 325 325 322 320 322 322 322 323 322 320 319 319 319 320 320 320 321 321 321 321 320 320 320 321 320 321 326 324 319 317 316 316 315 318 319 322 330 332 331 335 335 338 341 341 341 340 338 336 335 338 339 339 337 337 339 340 338 337 337 336 336 335 336 338 339 339 340 340 339 339 338 337 337 335 334 333 332 331 330 331 332 332 330 329 328 328 327 327 325 324 322 316 307 300
328 324 322 324 322 319 318 319 320 322 322 321 320 320 320 320 320 320 320 320 321 321 321 320 320 319 320 319 323 327 322 318 319 320 319 316 316 320 324 328 332 334 334 335 339 340 340 340 340 338 337 336 337 339 340 339 337 337 338 337 336 335 335 336 335 336 337 338 339 339 340 339 339 337 337 336 334 333 331 330 330 329 329 329 329 327 326 327 326 326 325 324 322 316 307 300 298
330 328 324 323 321 320 319 319 320 323 322 321 320 319 319 320 319 320 320 320 320 320 320 320 320 319 319 319 323 325 320 321 324 323 320 316 314 320 328 329 330 335 335 335 338 340 339 339 339 339 337 337 337 339 340 340 338 337 337 336 336 335 335 335 335 335 336 338 339 339 339 339 338 337 336 335 333 332 331 329 328 328 327 327 326 326 325 326 325 325 324 323 319 309 300 298 299
328 328 326 324 323 323 322 320 320 323 323 321 320 320 319 318 319 320 319 319 319 319 320 320 320 319 318 319 321 323 322 324 324 323 319 319 321 320 328 332 330 333 336 336 337 338 338 337 337 338 337 336 337 339 340 340 338 337 336 336 336 337 336 335 335 335 336 338 338 339 338 338 337 336 335 333 332 331 331 329 326 327 327 326 325 325 325 324 324 324 323 322 313 301 298 298 298
327 327 325 325 324 323 323 322 321 321 320 320 319 319 318 317 319 319 318 317 317 318 319 318 318 318 318 318 320 325 325 322 321 319 317 321 326 323 325 333 331 331 336 337 337 337 337 337 336 336 335 334 336 338 339 339 338 337 336 336 336 337 337 336 336 336 337 338 338 338 338 338 337 336 334 333 332 331 330 329 326 325 326 325 325 325 324 324 323 323 322 317 306 298 298 298 298
325 327 325 324 324 322 323 323 323 320 320 320 318 318 317 317 318 319 318 316 317 318 318 317 318 317 319 318 321 330 326 321 319 316 316 317 323 324 324 331 331 331 335 337 336 335 336 336 335 334 331 331 335 338 338 338 337 337 336 335 336 337 337 336 336 337 338 338 338 338 338 337 336 335 333 332 331 330 329 328 326 324 325 325 324 324 324 323 323 322 320 311 300 297 298 297 298
323 326 326 324 323 322 322 324 324 321 321 321 318 318 317 318 318 318 318 317 318 318 318 318 318 317 318 317 320 327 323 319 317 315 316 316 319 323 323 327 330 331 334 336 336 335 335 336 336 334 330 329 334 338 338 337 337 336 336 336 336 337 337 336 336 338 338 338 338 338 337 336 335 333 331 331 330 329 328 328 327 323 323 325 324 324 323 323 322 321 317 305 298 298 298 297 297
323 324 325 323 323 322 321 323 323 320 320 319 319 319 317 318 318 318 318 317 317 317 318 317 317 317 317 317 319 322 320 318 317 318 320 320 319 322 323 324 328 330 332 334 335 334 334 335 335 335 333 331 334 338 337 336 335 335 336 337 337 337 337 336 336 338 338 338 338 337 336 335 334 331 329 329 328 328 328 328 327 322 322 324 324 323 323 322 321 320 314 301 297 298 297 298 297
323 324 324 322 323 322 322 322 321 320 318 318 318 318 317 317 318 318 317 317 317 317 317 317 317 318 317 317 318 320 321 319 319 320 323 324 323 324 325 325 325 328 329 331 332 334 334 334 335 335 335 334 334 336 337 336 335 335 336 337 337 337 336 336 337 338 338 337 336 335 335 333 332 330 329 329 328 328 327 327 327 321 318 323 324 322 323 322 321 319 310 298 298 298 297 297 297
323 325 324 323 323 323 322 320 320 321 319 318 317 317 317 317 317 317 317 317 317 317 316 317 317 317 318 317 318 321 321 320 320 321 323 325 326 325 325 326 325 326 328 329 329 331 333 334 334 335 335 335 334 335 335 336 336 335 335 336 336 336 336 336 336 337 337 336 335 334 333 331 330 329 329 328 327 327 327 327 326 318 313 320 323 321 322 321 320 319 308 297 298 297 297 298 297
323 323 323 322 322 322 321 320 320 320 319 319 318 317 317 317 317 317 317 318 317 317 317 316 317 317 318 317 317 320 321 320 321 322 322 322 325 325 325 326 327 326 325 326 326 329 331 333 333 334 335 335 335 335 335 336 336 335 335 334 335 335 335 335 336 336 337 336 334 333 332 330 329 329 328 328 327 327 326 326 325 316 312 318 322 321 321 320 320 317 307 297 298 297 298 298 298
322 322 322 322 321 320 319 318 318 319 319 319 318 317 317 316 317 317 317 318 317 317 317 317 317 316 317 317 316 316 318 319 320 322 322 321 322 323 323 324 326 327 326 325 327 328 328 330 331 333 334 335 335 334 335 335 335 335 334 334 334 335 335 335 336 336 336 335 333 332 331 330 329 328 327 327 327 327 326 325 322 316 313 318 322 321 320 319 318 314 303 297 297 296 297 298 298
321 320 321 321 321 320 318 318 319 320 319 319 319 317 317 317 317 317 318 318 317 316 317 317 316 316 316 316 316 316 317 319 320 321 321 321 321 321 322 322 322 325 327 327 328 327 326 327 329 331 333 334 334 334 334 334 334 334 334 334 334 335 335 335 335 335 334 333 332 332 331 330 329 328 327 327 327 326 325 323 320 316 315 319 322 321 318 317 315 309 300 297 297 296 297 297 297
321 320 320 320 319 318 317 318 320 319 319 318 318 317 317 316 316 317 317 317 317 317 317 317 317 317 316 316 317 318 320 321 321 319 319 320 321 321 320 321 321 321 325 327 327 328 327 326 327 330 333 334 334 334 334 334 334 333 334 334 334 334 334 334 334 334 333 333 332 331 331 329 328 327 327 327 327 326 324 321 319 317 316 318 321 321 317 314 312 307 300 298 296 296 296 296 297
319 320 320 319 318 317 316 317 319 319 318 318 318 318 317 316 316 316 316 317 317 317 317 317 317 316 317 317 317 318 319 320 319 318 319 319 319 320 320 320 320 320 322 325 326 327 328 327 326 328 331 332 333 334 333 333 334 333 333 333 333 332 332 333 332 332 332 332 332 330 329 328 327 327 327 326 325 324 323 321 320 317 316 318 320 320 317 314 312 307 300 297 297 296 297 297 297
318 318 319 319 318 317 317 318 319 319 318 317 318 318 317 316 316 316 315 316 316 317 316 316 316 316 317 317 317 318 320 320 318 317 318 318 317 318 319 320 320 320 320 322 326 327 328 328 327 328 330 331 332 333 333 333 333 333 332 332 332 331 331 332 331 331 331 330 330 329 328 328 327 327 326 326 325 323 322 321 319 317 317 318 318 318 317 316 313 308 302 298 297 297 297 297 297
317 317 317 317 316 317 317 316 316 317 316 316 318 318 317 316 316 316 316 316 316 316 316 316 316 316 317 316 317 317 318 319 318 316 316 317 318 318 318 319 320 320 320 320 322 325 326 327 328 328 329 330 331 332 333 333 332 332 331 331 331 331 331 331 331 330 330 329 329 329 328 328 327 326 326 325 325 323 321 321 319 317 318 319 317 316 316 316 313 309 304 299 297 297 297 296 297
317 316 316 315 315 315 315 315 314 314 314 314 316 316 316 316 316 316 315 316 316 316 316 316 316 317 316 316 316 316 317 317 316 316 316 316 317 318 318 319 320 319 319 319 320 322 324 325 327 327 328 329 330 331 332 332 332 331 331 330 330 331 331 331 331 330 330 329 329 329 328 328 326 326 326 324 324 322 321 320 319 318 318 318 318 315 315 316 314 310 304 299 297 297 296 296 296
316 315 314 314 314 314 314 314 314 314 314 315 315 315 315 315 316 315 315 315 315 315 315 315 316 316 317 316 316 317 317 316 315 316 317 317 317 318 318 319 320 319 319 319 318 320 322 324 325 326 327 328 328 329 331 331 331 331 330 330 330 330 330 331 331 330 329 329 328 328 328 327 326 326 325 324 323 321 319 319 319 319 318 318 319 316 315 316 314 309 304 299 297 296 296 296 296
315 314 314 313 314 314 314 314 314 315 315 316 315 315 315 315 315 315 315 315 315 315 315 316 316 316 316 316 316 317 317 314 314 315 316 317 316 316 317 317 318 319 318 319 318 319 320 322 324 325 326 327 328 328 329 330 330 330 330 330 330 329 330 330 330 329 329 328 328 328 328 327 326 326 325 324 323 320 318 319 318 318 319 319 319 316 315 314 312 308 303 299 297 296 296 296 297
314 313 313 314 314 315 315 315 316 315 315 316 314 314 315 315 315 316 316 316 315 316 316 316 316 315 315 315 315 316 317 316 315 316 316 316 316 316 316 316 316 316 316 317 318 319 319 320 322 324 325 326 327 327 328 329 329 330 329 329 329 329 329 329 329 329 329 328 328 327 327 327 326 325 325 324 322 320 318 318 318 318 319 318 317 316 314 312 309 305 301 298 297 297 297 297 297
314 314 315 315 316 316 316 317 317 316 315 314 314 314 315 315 316 317 317 316 315 315 316 316 315 314 314 315 316 317 317 316 315 315 315 315 315 314 314 314 314 314 314 314 316 318 319 319 320 323 325 326 326 326 327 327 328 328 328 328 329 329 329 329 329 328 328 328 327 327 326 326 326 325 324 323 322 319 318 317 317 317 317 317 316 314 312 310 306 303 300 298 297 297 297 297 297
315 315 316 318 317 316 317 319 318 316 315 313 314 315 314 315 316 317 317 316 315 316 315 315 315 314 314 314 315 317 317 316 314 315 314 313 313 312 312 311 311 312 313 312 313 315 318 319 319 321 323 324 326 326 326 327 327 327 327 327 327 328 328 328 328 328 328 328 327 327 326 325 325 325 324 323 321 319 317 316 316 316 315 314 313 312 310 309 305 302 299 298 297 297 297 298 297
317 316 316 318 318 317 319 320 318 316 315 313 314 315 315 315 316 317 316 315 315 315 314 314 314 314 314 315 315 317 318 317 314 313 313 312 312 311 310 310 310 310 311 311 311 312 316 318 318 319 320 321 323 325 326 326 326 326 326 326 326 327 327 328 327 327 327 327 327 326 325 325 324 324 324 322 321 319 317 315 315 314 314 313 312 310 309 307 305 301 299 298 297 297 297 297 296
319 319 318 319 319 318 318 319 319 318 317 315 314 314 314 315 315 315 315 316 315 314 315 314 314 315 314 315 316 317 317 315 313 312 312 311 310 310 309 309 308 308 309 309 310 311 313 315 317 318 319 319 321 323 325 325 325 325 325 325 326 326 326 326 326 326 326 326 326 325 325 324 323 324 323 322 320 319 317 315 314 313 312 312 311 309 307 306 304 302 299 298 297 296 297 297 297
319 321 320 320 320 319 318 318 319 319 318 317 317 315 315 316 315 316 316 315 315 315 315 314 314 315 315 316 317 317 315 313 312 311 309 308 308 308 307 306 306 306 307 308 309 310 312 313 315 317 318 318 319 321 323 324 324 324 325 325 325 325 325 325 325 325 325 325 325 324 324 323 322 322 322 322 320 318 317 314 313 312 311 311 310 308 306 305 304 301 300 298 296 296 296 297 297
318 320 319 319 318 318 318 318 319 319 318 318 318 318 317 317 316 315 315 315 315 315 314 315 315 314 316 318 317 316 314 313 311 309 308 307 306 305 305 305 304 305 305 306 307 309 310 311 313 315 315 315 317 319 321 322 323 323 323 323 324 324 324 324 324 324 324 323 323 323 323 322 321 321 321 321 319 318 316 314 312 311 310 310 309 307 306 304 303 301 300 298 296 296 297 297 297
319 319 319 319 318 318 318 318 319 318 318 318 318 318 316 316 316 315 315 314 314 315 315 315 315 316 318 319 317 315 314 312 310 308 307 306 305 304 304 303 303 304 304 304 306 307 308 309 311 313 314 314 315 317 319 321 321 322 322 322 322 322 322 323 323 322 322 322 321 321 321 320 320 319 319 319 319 317 315 314 312 310 309 309 308 307 305 304 303 301 300 298 296 297 298 298 297
319 319 319 319 319 318 317 318 318 317 317 317 317 317 316 315 315 314 315 315 315 315 315 316 317 318 319 319 316 314 313 311 309 307 306 305 304 303 303 302 302 302 303 303 304 305 306 308 309 310 312 312 313 314 316 318 319 320 320 320 320 320 320 320 320 320 321 321 320 320 319 318 318 317 318 318 318 317 315 314 312 310 309 308 307 306 304 303 302 301 299 298 297 297 298 298 297
320 319 320 320 319 318 318 318 318 316 316 316 316 315 315 315 315 315 315 315 316 316 317 318 319 317 317 316 314 312 311 309 308 306 305 304 303 302 301 301 301 301 302 302 303 303 305 306 307 309 310 310 311 311 313 314 316 317 317 317 318 318 318 318 318 318 319 319 319 319 318 317 316 316 316 317 317 317 316 314 312 310 308 307 306 305 304 303 301 300 299 298 297 297 298 298 297
320 320 320 319 319 319 319 319 318 316 315 316 316 316 315 315 315 315 316 316 317 317 317 318 317 315 314 313 312 310 309 308 307 305 304 303 302 301 300 300 300 300 301 301 301 302 303 305 306 307 308 308 309 309 310 311 312 314 315 315 315 315 315 316 316 316 316 316 317 317 316 315 315 314 314 315 315 315 315 315 313 311 308 306 306 304 303 302 301 300 299 298 298 297 298 297 297
320 321 320 319 319 320 320 318 317 316 316 317 318 318 318 318 318 318 317 318 317 316 315 316 316 314 313 312 310 309 308 307 306 304 303 302 301 300 300 300 299 299 300 300 300 301 302 303 304 305 306 306 307 308 308 309 310 311 311 311 311 311 311 311 312 312 312 313 313 314 314 313 313 312 312 313 313 314 314 314 313 311 308 306 305 304 303 302 301 300 299 298 297 297 297 297 298
320 322 323 321 319 320 321 320 320 318 318 319 319 322 322 320 321 321 319 319 319 316 314 314 314 313 312 311 309 309 307 306 304 303 302 301 300 300 299 299 299 299 299 299 299 299 300 302 303 303 304 304 305 306 307 307 308 308 308 309 309 309 309 309 309 309 310 310 310 310 310 310 310 310 311 311 311 311 312 312 312 310 308 306 305 304 303 302 301 300 299 298 297 297 297 297 298
319 323 325 323 320 321 322 321 321 319 318 318 318 321 321 319 320 321 320 320 317 315 314 313 312 311 310 309 308 307 306 305 304 302 301 300 299 299 298 298 298 298 298 299 299 298 299 300 300 301 302 303 304 305 305 306 306 306 307 307 307 307 307 307 307 308 308 308 308 308 308 308 308 308 308 309 309 309 309 310 310 310 308 306 304 303 302 301 300 300 299 298 298 297 296 296 297
322 322 323 322 319 320 320 319 320 319 317 317 318 320 320 320 321 320 320 320 316 313 313 312 311 311 309 308 307 306 305 304 303 302 301 300 299 298 298 297 297 298 298 298 298 298 298 298 298 299 299 301 302 303 304 304 305 305 306 306 306 306 306 306 306 306 306 306 306 306 306 306 306 306 306 306 307 307 307 308 308 309 308 306 304 303 302 301 300 299 299 298 298 297 296 296 296
323 320 317 318 317 317 317 318 319 318 318 320 321 320 322 324 322 321 322 319 315 313 312 311 311 310 308 307 306 305 304 303 302 301 300 299 298 298 297 297 297 297 297 298 298 297 297 297 297 297 298 298 300 301 303 303 304 304 304 304 305 305 305 305 305 305 305 305 304 304 304 304 304 304 304 304 304 305 306 306 306 307 307 306 305 303 302 301 300 299 299 298 298 297 296 296 296
319 317 317 317 317 318 318 318 318 318 320 321 322 321 324 327 325 322 323 318 314 313 312 311 311 309 307 306 305 304 303 302 301 300 299 298 298 297 297 296 296 296 296 297 297 297 297 296 296 296 296 297 297 299 300 301 302 302 302 303 303 303 303 304 304 304 304 304 304 304 303 303 303 303 303 302 302 303 304 304 304 304 305 305 305 303 302 301 300 299 299 298 298 297 296 296 296
317 317 318 319 320 320 318 318 317 319 323 324 322 322 322 327 329 321 319 317 314 313 312 311 310 308 306 305 304 303 302 302 301 299 298 297 297 297 296 296 295 295 295 296 296 296 296 296 296 296 296 296 296 296 297 297 298 299 299 300 301 301 301 302 302 302 303 303 303 303 303 303 303 302 302 302 301 301 302 302 302 303 303 303 304 303 302 301 300 299 298 298 298 297 297 296 296
315 316 316 319 323 321 319 319 318 321 326 323 321 322 322 327 329 321 317 316 313 313 312 310 309 307 306 305 303 303 302 301 300 299 298 297 297 296 296 295 295 294 294 295 295 295 295 295 295 296 295 295 295 295 295 295 295 296 297 297 298 299 299 300 300 300 301 301 301 302 302 302 302 302 302 301 301 301 300 301 301 301 301 301 302 302 302 301 301 300 298 298 298 298 297 296 296
315 315 315 320 325 322 321 323 323 324 326 319 318 323 324 325 323 318 319 316 313 313 312 310 308 306 305 304 303 302 302 301 300 299 298 297 296 296 295 295 295 294 294 294 294 294 294 294 294 294 294 295 295 295 295 294 294 294 295 295 296 296 297 298 298 298 299 299 300 300 300 300 301 301 301 301 301 300 300 300 300 300 300 300 300 300 301 301 300 300 299 298 298 298 297 297 296
314 317 320 323 323 320 320 322 322 323 323 319 318 319 322 323 320 316 316 313 312 312 311 309 307 305 304 303 302 302 301 301 299 299 298 297 295 295 295 295 294 294 294 294 294 294 293 293 293 293 293 293 294 295 295 294 294 294 294 294 294 295 295 296 296 296 297 297 298 298 298 299 299 299 300 300 300 300 300 300 299 299 299 299 299 299 299 300 300 299 299 298 297 297 297 297 296
316 318 323 323 321 320 320 320 321 322 323 321 319 320 321 322 320 315 312 310 310 308 307 306 305 304 303 302 301 301 300 300 300 299 298 296 295 295 295 294 294 294 293 293 293 293 293 293 293 292 293 292 293 293 293 293 294 294 294 294 294 294 294 294 294 294 295 295 296 296 297 297 298 298 298 299 299 299 299 299 299 299 299 298 298 298 298 299 299 299 299 298 297 297 297 297 296
319 317 321 323 322 321 321 322 323 322 322 320 319 322 321 318 318 315 312 309 308 306 305 305 304 303 303 302 301 300 300 300 299 299 298 295 294 294 294 293 294 293 293 292 292 293 293 293 292 292 292 292 292 292 292 291 292 293 294 294 294 294 294 293 293 293 293 293 294 294 295 295 296 296 297 297 297 298 298 299 299 299 298 298 298 298 298 298 298 298 298 298 297 297 296 296 296
319 319 322 322 321 321 321 322 321 321 322 320 318 320 319 316 318 315 312 309 307 306 305 304 304 303 302 301 300 300 299 299 298 298 297 295 294 294 293 293 292 292 292 291 291 292 292 292 292 291 291 292 292 291 291 290 290 290 291 292 293 293 293 293 293 293 293 292 292 293 293 293 294 294 295 295 296 296 297 297 298 298 298 298 297 297 297 297 297 297 297 297 297 297 297 296 296
319 320 321 319 319 319 319 320 320 321 322 320 317 319 317 317 319 315 313 311 308 306 304 303 302 301 300 300 300 299 299 298 297 297 296 294 293 293 292 292 292 292 292 291 291 291 291 291 291 291 291 290 291 291 291 290 290 289 289 289 290 290 291 291 291 292 292 292 292 292 292 292 292 292 293 293 294 294 295 295 296 296 296 297 297 297 297 297 297 297 297 297 297 296 296 296 296
317 317 317 317 320 320 319 319 320 321 321 319 318 319 317 317 318 315 314 312 308 305 304 302 301 300 300 299 299 298 298 297 297 296 295 294 293 292 292 292 292 292 292 291 291 290 290 290 290 290 290 289 289 289 290 290 290 289 289 288 288 288 289 289 289 290 290 291 291 291 292 292 292 292 292 292 292 293 293 294 294 295 295 295 296 296 296 296 296 296 296 296 296 296 296 296 296
314 313 315 317 319 319 319 319 320 320 320 319 319 318 318 317 314 313 312 310 307 305 304 302 301 301 300 300 299 298 297 297 296 296 295 294 293 292 292 292 292 292 291 291 291 290 289 289 289 289 289 288 289 289 289 289 289 288 288 287 287 287 287 287 288 288 288 288 288 289 290 291 291 292 291 291 291 291 292 292 293 293 294 294 295 295 295 295 295 295 296 296 296 296 295 295 295
316 315 315 315 317 318 318 317 318 319 319 319 318 318 318 314 310 308 308 307 306 304 302 302 301 300 300 299 299 298 297 297 296 295 295 294 293 293 292 292 292 292 291 291 290 290 289 288 288 288 288 288 288 288 288 288 288 288 287 287 287 286 286 286 286 287 287 286 286 287 287 288 289 290 291 291 291 291 291 291 291 292 292 293 294 294 294 295 295 295 295 295 295 295 295 295 295
318 318 317 316 317 319 318 317 317 317 318 319 318 318 319 312 306 306 305 304 305 303 302 302 300 300 300 299 298 297 296 296 296 295 294 293 293 292 292 292 292 292 292 291 291 290 289 288 288 287 287 287 287 287 287 288 287 287 287 286 286 286 286 286 286 286 286 286 286 285 285 286 286 287 288 289 290 290 291 291 291 291 291 291 292 292 293 294 294 294 294 294 294 294 294 294 294
Wind_Speed
5 6 7 7 8 10 8 3 1 2 2 4 3 2 1 0 1 1 6 6 3 3 3 2 3 2 3 3 3 5 4 3 3 2 1 4 7 11 12 13 13 14 17 14 16 24 25 25 24 22 21 20 20 19 18 16 15 15 14 14 12 12 12 12 12 11 10 9 8 8 7 7 6 6 6 5 5 5 6 6 7 6 5 4 3 4 4 5 5 5 3 2 3 3 1 2 4
4 6 7 6 7 5 3 0 1 3 2 2 1 4 0 0 2 4 6 5 3 3 2 2 3 3 3 4 4 5 4 4 2 1 2 8 9 11 12 13 15 16 18 15 17 24 26 25 24 23 22 21 20 20 18 17 16 15 15 14 13 13 13 12 12 11 10 9 9 8 8 7 7 7 7 6 6 5 5 5 6 6 5 4 3 4 5 5 4 3 3 2 2 1 1 2 2
4 3 6 6 5 4 2 0 1 3 4 2 2 3 2 3 4 5 5 5 4 2 1 2 2 2 3 4 3 2 3 2 2 4 4 9 6 8 11 13 15 16 18 16 17 24 27 26 25 24 23 21 21 20 19 17 17 16 15 14 14 14 13 13 12 11 11 10 10 9 8 8 8 8 8 7 6 5 4 4 5 6 5 5 4 4 4 4 3 2 1 3 2 1 2 1 1
4 3 5 7 3 3 2 1 2 3 4 3 2 3 3 3 4 5 4 4 4 2 1 2 1 1 2 3 2 2 3 2 6 4 3 7 3 6 9 13 16 15 18 16 17 24 28 27 26 25 24 22 21 21 19 18 18 17 16 15 16 15 14 13 12 12 11 11 11 10 9 9 9 9 8 7 6 5 4 5 5 5 5 5 5 4 3 3 2 2 1 3 1 2 3 3 4
6 4 5 6 2 1 1 1 2 2 3 2 2 1 4 4 5 5 3 1 5 3 1 1 1 1 1 2 2 2 1 3 4 2 3 7 5 5 6 12 16 15 19 16 15 22 27 28 27 26 26 24 21 22 21 19 19 18 17 16 16 16 15 14 13 13 12 12 11 11 10 10 10 9 9 8 7 6 4 5 4 4 5 5 4 3 3 2 2 1 1 3 2 2 4 5 6
8 5 5 3 1 1 1 2 2 3 2 3 2 3 5 5 5 5 4 2 5 4 0 1 2 1 2 2 3 2 1 2 1 1 3 7 7 5 4 11 16 14 18 17 15 20 25 28 28 28 27 26 23 23 22 21 19 19 18 17 17 16 16 15 14 13 13 13 12 11 11 11 11 10 10 9 8 6 5 5 5 4 4 4 4 3 2 1 1 0 1 3 3 2 5 7 8
9 5 2 2 1 1 1 4 4 4 0 3 2 3 5 5 5 5 5 3 2 3 1 1 1 3 4 1 2 4 3 2 2 3 4 5 6 5 4 10 15 13 15 17 15 18 23 26 27 28 27 27 25 24 24 23 21 20 19 18 18 17 16 15 15 14 14 13 12 12 12 12 12 11 10 9 9 7 7 6 5 4 4 4 4 3 2 1 1 1 1 3 3 3 7 8 9
6 3 0 1 1 1 2 4 5 4 1 2 2 1 2 3 4 3 4 3 2 1 2 2 2 2 3 1 2 4 5 5 4 4 4 4 5 5 4 10 15 13 14 17 16 16 20 23 25 26 27 28 26 25 25 24 23 21 20 19 19 18 17 16 16 15 14 13 13 13 13 13 13 12 11 10 10 9 9 7 5 4 4 5 5 3 3 3 2 2 2 2 4 5 8 10 9
5 2 1 1 1 1 3 4 5 3 1 2 3 1 1 2 2 1 3 4 2 1 1 3 4 2 2 2 4 2 5 6 6 5 4 4 4 5 6 10 14 14 15 16 17 18 18 21 23 24 27 28 27 25 26 25 25 23 22 21 20 19 18 18 18 16 15 14 14 13 14 14 13 13 12 11 11 10 9 9 7 6 6 5 5 5 5 5 4 4 3 3 5 7 9 10 7
3 2 1 1 1 2 4 4 1 1 0 2 1 1 4 4 4 2 3 4 1 0 1 5 2 4 3 5 4 2 6 9 7 5 5 4 5 5 7 11 12 14 16 17 18 19 19 19 21 23 25 28 28 26 26 26 26 24 23 22 22 21 20 19 18 17 16 16 15 15 15 15 14 14 13 11 11 9 8 8 7 7 7 7 6 6 6 6 6 5 5 5 7 9 9 7 3
1 2 1 1 2 3 4 3 4 4 3 3 1 5 6 5 3 3 3 4 2 1 3 5 1 4 4 5 4 2 9 9 7 7 6 4 5 5 7 11 13 14 16 18 17 18 19 19 21 23 24 27 28 26 26 26 26 25 23 23 23 22 21 20 19 19 18 17 17 17 16 15 14 14 13 12 10 8 7 7 7 8 8 7 7 7 7 7 7 6 6 7 9 9 6 3 1
1 2 1 1 3 4 4 5 4 5 6 5 2 6 4 3 1 4 2 4 3 4 3 5 2 1 2 4 3 5 10 7 8 8 6 5 6 7 7 10 14 15 16 18 18 17 18 19 22 23 24 26 28 27 26 25 25 26 24 23 23 22 21 21 20 20 20 19 18 18 16 15 15 15 14 12 10 8 10 10 8 8 8 7 7 8 8 8 7 7 7 8 9 7 3 2 4
1 3 2 2 3 5 4 4 5 5 5 1 4 3 1 1 1 4 4 5 6 6 2 2 1 1 2 5 2 5 8 5 7 8 5 5 5 7 9 8 12 16 16 18 20 18 17 19 22 24 25 26 29 29 27 26 25 25 25 24 23 22 22 22 21 21 21 21 19 18 17 16 15 15 13 12 12 12 13 14 10 9 9 8 8 8 7 7 7 7 9 9 8 5 3 3 4
2 3 2 3 3 5 4 4 5 4 4 2 4 3 2 0 1 3 4 5 7 2 0 1 2 3 2 5 3 1 4 5 7 7 7 8 6 7 9 9 11 14 16 19 20 19 18 17 20 24 25 26 29 30 28 27 26 25 25 24 23 23 22 22 22 21 21 21 19 18 18 17 16 15 14 15 15 15 15 15 12 10 9 9 9 9 8 8 7 9 11 10 7 4 4 4 5
2 3 1 2 4 5 4 4 3 3 4 2 2 2 1 3 3 1 3 5 5 1 0 3 3 1 2 4 2 1 5 9 7 7 7 8 8 7 9 11 11 14 16 18 20 20 19 17 17 22 25 26 30 31 30 28 26 26 25 25 24 23 23 22 22 21 21 21 20 20 20 19 18 17 16 17 17 16 16 16 14 12 11 10 10 10 9 9 9 10 11 9 6 5 4 4 5
1 3 1 2 3 5 4 3 2 2 3 3 2 2 0 3 2 3 2 1 5 4 3 3 5 4 4 6 3 3 8 10 7 6 6 6 8 7 9 12 11 13 16 17 19 20 20 19 18 19 22 26 30 31 31 30 28 26 26 26 25 24 23 23 22 21 21 21 21 21 20 19 19 18 18 18 17 17 17 17 16 15 13 12 11 11 10 10 9 10 10 8 6 5 5 5 4
0 1 1 2 4 4 4 2 1 1 4 2 3 2 1 3 1 2 2 1 5 8 8 6 5 6 7 11 9 5 9 9 7 6 5 6 7 8 9 11 12 13 16 18 19 20 20 21 20 19 20 24 29 30 29 29 29 28 27 27 26 25 24 23 22 22 23 22 22 21 20 19 19 19 18 18 18 18 18 17 17 17 16 13 13 12 11 11 10 9 10 9 7 5 5 4 4
1 1 2 4 4 5 3 4 4 3 5 5 3 4 4 4 2 1 2 2 5 9 11 9 8 9 13 19 17 11 11 11 9 9 8 8 9 10 11 12 14 15 17 19 20 21 22 23 22 21 21 23 26 28 28 27 28 28 28 28 27 26 25 25 24 24 24 23 22 21 20 20 20 20 19 19 19 19 19 19 17 18 17 15 14 14 13 13 11 10 10 9 7 6 5 5 4
2 2 3 4 4 5 5 7 7 4 5 7 7 7 6 6 5 1 2 6 6 8 11 9 9 10 13 18 19 15 13 13 13 13 12 12 12 12 13 14 16 17 17 20 22 23 23 24 25 25 24 24 25 28 28 27 27 27 28 30 29 28 27 27 26 26 25 25 24 23 22 21 21 20 20 20 20 20 20 19 18 18 18 17 16 16 15 14 12 11 11 10 8 7 7 6 5
4 3 3 5 5 6 6 7 7 5 5 7 7 6 6 6 6 3 4 8 7 9 10 9 11 10 9 9 9 14 16 16 16 15 14 14 15 15 14 14 17 19 20 21 22 23 25 25 27 28 27 26 27 28 29 28 27 27 27 29 31 31 30 30 29 29 28 27 26 25 24 22 21 20 19 18 19 20 20 20 20 19 18 18 18 18 17 15 13 12 13 11 9 9 9 8 6
3 4 4 5 5 7 7 9 9 6 4 4 6 7 7 7 6 5 5 6 7 9 9 9 11 11 10 10 8 7 9 12 15 15 14 15 16 16 16 16 16 17 18 20 21 23 25 27 28 29 29 29 29 30 30 30 29 28 28 29 31 32 32 32 32 31 30 29 28 26 25 23 22 21 20 19 19 20 21 20 20 20 19 19 20 20 19 17 16 15 14 12 11 11 9 8 6
2 4 7 7 6 7 8 9 6 4 4 3 6 7 7 6 6 6 5 7 8 8 8 10 13 13 12 11 10 11 9 8 10 13 14 15 17 17 18 17 17 15 16 20 22 23 25 27 29 29 31 31 31 31 31 30 30 29 28 29 31 32 32 33 33 33 32 30 29 28 26 24 23 23 22 22 21 22 21 20 20 21 21 22 22 22 21 19 18 18 15 13 13 12 10 9 7
5 5 6 7 7 8 9 9 2 3 3 6 7 6 6 8 9 8 7 10 11 10 10 12 15 15 15 13 10 11 11 10 8 11 14 16 17 18 19 18 17 16 17 19 21 23 24 26 28 29 31 32 31 31 31 31 32 31 29 28 29 31 31 32 33 34 33 32 31 29 27 25 24 25 24 24 23 23 22 21 21 22 23 24 24 23 22 20 19 18 16 14 14 13 13 12 10
6 6 5 8 9 11 10 9 4 1 6 7 6 6 7 9 10 9 9 12 13 12 12 14 15 16 16 13 10 11 11 11 11 14 18 18 18 19 19 18 18 17 17 19 21 22 24 25 27 29 31 32 32 31 31 31 31 32 30 28 28 29 30 31 31 32 33 33 32 31 29 26 26 27 26 25 24 23 23 22 21 22 24 25 25 24 22 20 19 18 17 16 16 16 15 13 11
8 7 6 7 8 9 8 7 7 6 8 7 5 8 10 11 9 12 14 14 15 14 13 14 15 14 13 12 12 11 10 10 12 16 18 20 19 18 17 18 18 18 18 20 21 22 23 24 25 28 30 31 32 32 32 32 31 32 32 30 29 29 30 30 30 30 30 31 32 32 31 29 28 28 28 26 24 24 24 23 21 22 25 25 24 24 23 21 20 20 19 18 19 18 16 14 12
5 6 5 6 7 8 9 9 10 9 8 6 6 9 11 9 7 12 15 14 14 13 13 14 13 12 11 11 11 9 9 10 11 14 17 18 17 17 18 19 19 20 22 23 23 23 23 23 25 28 30 31 32 33 34 33 32 32 32 32 30 30 30 30 29 29 29 29 31 32 32 32 30 29 29 28 25 25 25 23 22 23 24 25 24 23 23 23 22 22 21 20 21 19 16 15 13
4 6 7 8 9 10 10 12 14 12 10 10 9 10 11 8 4 8 12 11 11 10 11 11 9 10 10 9 9 8 9 9 12 15 14 12 13 16 18 19 20 21 22 23 24 25 24 24 25 27 29 31 31 33 34 34 33 32 33 32 31 30 31 30 28 28 29 30 30 32 33 33 31 30 30 28 26 26 27 25 24 24 25 26 25 24 25 25 24 23 21 20 21 19 17 15 14
5 7 8 10 10 11 13 14 15 11 8 10 9 8 10 6 5 12 15 13 11 9 11 11 9 9 9 10 9 8 8 10 14 13 9 8 11 14 16 17 20 22 22 23 24 23 23 24 25 27 28 30 31 32 33 34 33 32 32 32 32 32 31 31 29 28 29 29 30 31 33 33 32 31 30 29 28 27 28 27 26 25 26 27 26 25 26 26 24 23 21 20 19 18 17 15 14
4 4 6 12 11 12 15 14 14 12 7 6 4 1 6 7 10 16 16 13 12 11 11 11 10 9 9 9 8 7 7 10 10 8 9 12 14 13 13 14 16 18 19 19 21 21 21 22 23 25 27 29 31 32 32 32 33 32 32 31 32 32 32 32 32 31 29 29 30 30 32 34 34 32 30 29 28 28 29 29 28 28 28 28 27 27 27 26 24 23 21 20 19 18 18 16 15
4 4 5 9 9 8 11 11 10 10 4 8 7 1 5 7 12 14 11 9 9 10 10 9 9 9 9 8 7 7 8 8 7 9 9 7 6 6 6 8 10 13 15 14 15 16 18 20 21 22 25 27 29 30 30 30 31 30 30 30 30 31 32 32 33 32 31 30 30 31 32 34 35 33 31 29 29 29 30 30 30 30 30 29 28 28 28 26 26 25 23 22 21 20 19 18 17
5 7 5 5 5 4 8 8 3 3 1 7 7 3 5 6 11 10 7 4 5 7 8 9 10 10 11 9 7 7 7 8 7 6 8 15 16 14 14 14 13 13 14 13 11 10 13 16 18 19 21 23 25 27 27 27 27 28 27 27 28 28 30 31 31 32 31 30 31 31 32 34 35 34 32 30 30 31 31 32 31 31 30 30 30 30 29 28 27 26 26 25 23 22 21 19 18
5 5 4 4 4 4 8 7 5 5 3 3 6 2 6 8 8 7 7 7 7 9 10 11 13 13 12 9 7 6 6 5 9 18 24 26 25 24 23 22 19 17 16 13 9 7 8 11 14 16 17 19 22 24 25 24 23 24 24 24 25 25 27 28 28 29 29 29 30 31 32 33 34 34 33 31 32 32 32 33 33 32 31 31 31 30 30 30 29 28 27 26 25 24 22 20 19
4 4 5 5 5 5 6 3 4 7 2 3 6 4 5 6 6 7 9 11 10 10 12 14 15 14 12 8 6 6 4 7 14 21 25 26 25 24 22 22 20 17 16 14 12 8 3 6 10 12 14 15 18 20 22 22 20 19 20 21 21 22 23 25 25 25 26 26 27 29 30 32 34 33 33 32 32 33 33 33 33 32 32 32 31 31 31 30 30 29 27 27 27 25 23 21 20
3 4 5 5 6 6 5 3 1 3 3 4 8 7 7 7 8 9 10 11 10 10 13 15 13 10 9 8 6 5 6 10 11 15 23 26 25 24 22 22 21 18 17 15 13 10 5 1 3 7 10 10 12 16 17 19 18 15 16 16 17 18 19 22 22 22 23 24 24 26 27 29 32 33 32 32 32 33 33 32 32 32 33 32 32 32 31 30 30 29 28 27 27 26 25 23 22
5 5 5 5 6 6 7 6 6 5 5 7 7 8 9 8 7 8 10 11 10 11 13 12 11 10 9 7 4 6 10 11 10 16 24 26 26 24 22 23 22 21 19 17 15 14 11 8 5 1 4 5 8 11 11 14 15 14 13 13 14 15 15 17 19 19 19 20 21 23 24 24 28 31 33 33 32 32 32 32 31 31 33 32 32 32 31 30 29 29 29 28 27 26 26 25 25
9 9 7 7 7 6 8 9 7 9 9 8 8 9 9 7 7 10 12 12 12 13 11 9 11 11 7 4 6 9 11 10 12 20 25 25 25 23 22 24 23 23 23 20 19 18 16 14 10 6 3 1 4 7 8 10 13 13 12 12 13 14 14 14 16 17 17 17 18 19 21 21 23 27 31 32 32 31 32 31 30 30 32 33 33 33 32 32 32 31 31 30 28 26 25 25 25
11 9 8 8 7 7 8 9 9 7 7 6 6 8 9 9 10 12 15 13 12 12 9 9 10 6 3 7 8 11 11 9 14 22 24 24 24 24 23 24 24 24 26 25 23 22 20 17 15 13 8 3 0 3 5 8 10 10 11 11 12 12 13 14 15 16 16 15 15 15 17 19 19 22 27 30 31 31 30 30 29 30 31 32 33 34 34 33 33 32 31 30 30 27 25 25 27
9 7 7 6 6 8 8 10 11 5 2 4 6 8 8 9 13 16 16 12 10 11 10 8 4 4 6 8 10 11 9 9 13 17 19 22 23 23 23 24 25 25 25 26 26 24 22 20 19 18 12 7 4 1 2 3 5 6 7 8 9 10 11 12 14 15 16 16 15 14 15 16 16 18 22 28 31 31 31 30 30 30 30 31 32 32 32 32 32 32 31 29 29 29 27 27 30
7 6 6 6 6 7 8 9 7 2 1 4 7 9 8 10 16 17 15 11 9 9 4 3 6 9 7 8 10 9 9 10 11 11 14 19 22 23 24 25 25 24 25 26 26 25 24 22 21 20 15 11 8 4 3 3 1 2 2 2 3 5 5 7 9 11 13 15 15 16 16 15 16 17 20 25 30 32 32 32 31 31 31 31 31 31 31 31 32 32 33 32 30 29 26 28 33
4 4 4 5 6 6 5 4 5 6 4 7 9 8 6 11 15 14 13 10 8 2 8 11 10 10 10 10 10 9 11 10 10 9 11 15 19 22 24 24 24 24 25 27 26 25 25 24 22 20 16 13 11 7 4 4 3 1 2 1 1 2 2 3 5 7 9 11 13 16 16 16 16 17 20 23 27 30 32 33 33 32 32 32 32 33 32 32 34 34 34 35 33 29 26 28 34
4 5 5 7 7 7 5 4 7 7 6 6 6 6 5 8 9 7 6 5 3 5 13 12 9 10 10 11 12 11 11 9 9 9 9 12 16 20 23 23 23 24 25 26 26 26 24 23 22 20 16 13 13 10 6 5 4 2 1 0 1 0 1 3 5 6 8 10 11 14 15 16 16 16 19 20 24 27 30 32 32 32 32 32 33 34 34 34 35 36 36 36 36 34 31 29 32
5 5 6 7 6 6 5 6 6 4 4 2 3 4 4 4 5 6 5 6 3 7 12 10 9 9 8 10 10 10 10 9 8 8 9 11 14 18 21 23 23 24 26 26 26 26 24 22 20 19 18 16 14 12 8 7 6 4 4 4 4 3 2 2 4 4 5 7 8 10 12 14 15 16 18 19 21 24 27 30 31 31 31 30 31 33 34 34 35 36 37 37 37 37 34 28 30
4 3 3 4 3 4 4 5 3 1 4 3 1 3 5 4 5 7 10 8 0 9 10 9 8 8 8 8 8 8 8 7 7 8 8 10 13 16 19 22 24 25 26 26 26 27 25 23 21 19 18 16 15 14 10 9 8 7 6 5 5 5 5 5 5 4 2 2 3 5 8 10 12 13 16 18 19 21 24 27 29 30 30 29 29 31 33 33 34 36 37 38 38 37 35 30 30
3 2 3 5 4 4 4 3 2 4 4 5 5 5 5 5 5 10 12 5 7 10 9 8 7 7 8 8 8 8 8 6 6 7 7 10 13 16 18 21 24 24 25 26 26 26 25 23 21 20 19 17 15 13 12 11 10 9 8 7 7 7 7 6 6 6 4 2 2 4 6 8 10 11 12 15 17 19 21 23 26 28 29 29 28 29 32 33 33 33 35 37 38 37 36 33 32
2 0 2 4 3 3 3 3 4 4 4 5 5 6 3 5 5 8 8 6 9 8 8 7 7 8 9 9 8 7 7 7 6 7 8 10 13 17 19 21 22 24 25 26 26 25 24 23 22 21 20 19 16 13 12 12 10 8 8 8 9 8 8 7 6 6 6 5 3 4 5 7 9 10 11 12 14 17 19 20 22 25 28 29 28 28 30 31 32 32 33 35 37 37 37 35 33
1 1 1 2 3 4 4 4 3 4 3 5 6 6 3 4 5 5 1 6 6 6 7 6 6 7 8 8 8 7 6 6 6 7 8 11 15 18 19 20 22 24 25 25 26 25 24 24 24 24 22 20 18 16 14 12 10 9 9 10 11 10 9 9 8 7 7 7 7 5 5 6 8 10 10 11 12 14 17 18 20 22 25 27 28 28 28 29 31 32 32 34 37 37 37 36 34
1 2 2 4 5 4 3 3 1 2 3 5 7 8 7 3 5 2 3 3 8 8 6 6 7 7 7 7 7 6 6 5 6 6 8 12 16 18 19 20 21 24 25 25 25 25 24 24 25 25 24 22 20 19 17 15 13 12 11 11 11 12 11 10 10 9 9 8 9 9 8 7 7 8 10 11 11 12 14 16 18 20 22 24 26 27 28 28 30 31 31 32 35 37 38 37 36
2 1 2 4 4 1 1 0 1 1 4 4 5 1 6 3 4 2 4 2 10 11 9 10 9 8 7 6 6 6 6 6 6 6 6 9 12 15 17 18 19 22 24 25 23 22 22 23 24 25 25 24 22 21 20 19 18 16 14 14 14 13 12 11 11 11 11 10 10 10 9 9 8 8 9 10 11 12 12 14 16 18 19 21 24 26 27 28 28 30 31 31 32 35 37 37 37
4 2 0 2 3 1 1 1 1 3 4 3 1 3 0 4 5 8 9 4 4 6 9 11 11 10 8 6 6 6 5 6 5 5 6 6 7 11 13 15 18 20 22 23 21 19 19 20 22 24 24 23 22 23 23 23 23 22 20 18 17 15 13 12 11 11 10 10 10 10 10 10 10 10 10 10 11 12 12 13 14 16 17 19 21 23 25 27 28 28 30 31 31 32 35 37 38
4 4 3 3 1 2 3 3 2 3 3 3 1 2 3 4 5 6 4 4 8 9 9 10 10 11 9 7 7 6 6 5 5 5 5 5 8 11 14 16 18 20 21 21 20 18 18 20 22 22 22 22 22 23 24 25 26 25 24 23 21 19 17 14 12 11 10 9 9 10 10 11 11 11 12 12 12 12 12 13 14 14 15 17 18 20 22 24 26 27 28 30 30 30 32 35 37
5 3 4 3 2 3 4 3 3 4 4 4 2 2 2 2 1 2 8 9 9 10 10 10 10 9 8 7 7 6 5 5 5 5 5 6 10 13 13 15 16 17 18 17 16 16 16 19 20 20 20 21 22 22 22 24 25 25 25 24 24 23 21 18 16 14 12 11 11 10 10 11 11 12 12 12 12 12 13 13 14 14 15 16 17 19 21 22 24 26 27 28 30 29 29 32 35
2 1 3 1 3 3 3 3 4 4 5 6 4 4 3 2 6 3 8 10 9 10 10 10 9 8 7 7 6 5 5 5 5 5 5 7 11 12 13 14 14 14 14 14 13 13 14 16 17 18 17 17 19 20 21 22 23 24 24 24 24 24 23 21 19 18 17 16 14 13 12 12 12 12 12 12 12 12 12 12 13 14 15 17 18 19 20 21 22 24 26 27 29 29 29 30 32
1 2 2 3 2 3 1 4 5 4 5 6 4 5 5 4 7 4 8 11 8 8 8 9 8 7 7 6 5 5 5 5 5 4 4 6 10 11 11 12 12 12 12 12 11 11 12 13 14 15 15 16 17 18 20 22 23 24 24 24 24 23 22 21 19 18 18 18 16 15 15 14 13 13 14 13 13 12 12 12 13 15 16 17 18 19 20 21 21 23 24 26 28 29 30 30 30
2 1 2 2 1 1 1 3 3 4 5 5 5 8 7 4 4 1 8 9 8 7 8 8 7 7 7 5 5 5 4 3 3 3 4 6 8 9 9 8 8 8 8 9 10 11 11 12 12 13 14 16 16 17 18 20 22 23 24 24 24 23 22 20 20 19 19 19 18 17 17 16 15 15 15 15 15 14 14 14 14 15 16 17 18 19 20 21 21 22 23 24 26 27 29 30 30
3 2 1 2 0 1 2 1 1 4 6 4 5 8 8 5 4 3 2 7 9 8 7 8 7 6 6 4 4 3 1 0 1 2 2 3 5 6 6 7 7 7 7 8 9 10 11 12 13 14 15 16 17 18 18 19 20 21 22 22 22 22 22 22 22 22 22 22 21 19 18 17 16 15 15 16 15 15 15 15 15 16 16 17 17 19 20 21 21 22 23 24 25 25 27 29 29
3 2 2 1 2 3 2 2 2 5 6 5 5 7 6 3 3 6 6 5 8 7 6 6 5 5 5 4 4 3 2 2 1 1 1 0 2 3 5 7 8 8 9 9 9 11 12 13 14 16 17 17 18 19 19 19 20 20 20 20 21 21 21 22 22 22 23 23 22 21 20 19 18 17 16 16 15 15 16 16 16 16 16 16 17 17 18 20 21 22 23 24 24 24 25 27 28
2 2 1 1 1 1 2 2 3 4 5 5 6 7 4 1 4 6 8 8 7 7 7 5 4 4 4 4 4 3 3 3 3 2 2 1 1 2 4 5 6 7 7 7 8 9 11 14 15 16 17 18 18 18 18 18 18 19 20 20 20 21 21 21 21 21 21 21 21 22 21 20 20 19 18 17 17 16 16 15 16 16 16 16 17 17 17 18 20 22 23 24 24 24 25 26 27
1 2 3 4 3 2 3 5 4 4 4 4 6 8 4 0 2 4 6 5 6 7 7 5 4 4 4 5 5 5 4 4 4 3 2 2 2 3 5 6 5 5 5 6 7 9 11 14 15 16 17 17 17 17 17 17 17 18 19 19 19 20 20 20 20 20 20 20 20 20 20 21 21 20 19 19 18 18 17 16 16 16 16 16 16 16 17 17 19 21 22 23 24 24 25 25 26
Wind_Direction
350 343 341 337 321 315 304 275 277 256 206 247 263 55 86 104 186 340 26 49 67 73 49 311 299 300 282 301 305 306 290 267 280 321 261 175 152 158 182 180 162 166 170 184 188 181 184 185 184 179 178 178 178 177 179 184 185 187 187 192 190 181 178 174 174 172 172 174 173 172 171 172 172 171 170 173 173 175 182 181 167 159 165 171 172 153 146 140 136 131 142 179 133 118 123 96 97
359 334 326 317 303 301 312 335 315 281 248 262 16 49 35 232 70 47 35 34 42 53 27 306 311 307 274 275 277 295 273 233 213 32 117 136 135 163 190 180 166 166 166 185 188 181 185 185 185 181 180 180 178 178 180 185 187 189 189 192 188 177 176 176 178 179 179 180 178 178 180 184 180 177 175 176 174 173 184 190 174 163 171 169 162 156 145 136 138 137 137 228 211 143 174 131 109
2 335 317 296 269 241 278 308 260 304 313 331 51 48 27 9 46 47 38 60 65 55 334 251 251 282 254 241 257 282 266 277 94 44 115 142 133 166 193 178 165 168 167 185 188 182 187 186 188 184 182 183 180 180 182 187 188 190 189 191 186 179 182 182 184 185 185 184 184 186 191 194 187 181 177 172 168 169 172 168 170 169 172 166 159 153 140 131 143 142 144 246 248 215 251 242 267
5 12 323 297 259 218 260 240 250 308 304 313 53 83 75 35 41 44 38 82 118 128 271 263 178 187 229 254 311 321 268 28 78 48 120 150 143 162 185 175 163 169 171 183 190 185 189 189 190 187 184 184 183 183 184 189 190 191 191 191 188 183 185 187 189 189 189 190 190 192 197 198 193 184 173 166 158 159 163 155 166 172 166 158 154 146 134 130 129 126 191 238 241 245 268 288 291
358 358 299 296 310 240 303 298 279 274 270 319 18 52 51 32 31 41 14 69 130 133 268 302 326 194 223 287 309 307 308 55 80 52 109 129 143 162 181 178 163 171 177 179 191 189 190 192 192 190 188 186 185 186 187 191 192 192 192 192 191 189 189 189 192 194 194 196 195 196 201 199 195 183 167 162 157 156 163 155 153 153 150 145 135 124 116 115 118 109 200 241 245 263 281 296 302
330 314 262 270 284 109 2 284 274 260 265 31 2 354 15 11 23 25 334 348 119 126 152 262 307 292 262 239 191 233 349 66 157 111 123 133 151 173 182 177 164 174 182 176 189 192 192 194 194 193 191 188 187 188 190 193 194 193 194 193 193 194 193 193 195 197 197 200 199 201 203 199 195 181 166 163 160 165 175 160 147 142 142 144 138 131 123 104 138 160 267 252 248 267 289 299 304
313 307 241 241 271 92 286 267 275 279 338 68 13 347 347 350 27 11 329 1 103 124 103 272 18 323 275 199 198 237 206 167 175 131 152 151 145 173 171 167 167 177 187 178 188 195 195 198 196 195 193 190 189 190 193 195 195 195 197 196 196 198 197 196 199 200 200 202 202 204 202 198 194 178 172 173 163 168 181 175 167 170 171 175 170 160 169 173 191 231 268 255 248 261 288 299 303
298 297 85 292 280 173 232 265 264 262 256 82 70 334 325 352 33 8 323 324 276 142 165 201 111 282 257 153 235 211 169 156 158 153 174 181 157 184 170 163 171 180 191 182 187 197 200 203 199 198 196 192 190 192 195 196 196 196 200 200 199 201 199 199 201 202 201 204 206 205 199 196 191 179 181 187 179 177 186 189 187 192 205 201 195 198 204 217 232 234 233 245 242 258 289 298 303
258 229 23 326 289 239 238 249 244 237 266 47 50 325 6 16 32 43 312 300 287 328 179 148 127 228 307 326 261 156 140 157 156 163 189 206 193 200 174 168 176 181 190 183 188 200 203 206 203 202 200 195 192 193 196 197 197 197 200 202 201 202 202 202 204 204 202 205 208 203 197 195 189 182 186 195 198 195 199 206 210 221 229 223 214 220 224 228 233 232 237 239 237 262 290 299 305
238 189 344 312 296 276 256 250 271 352 347 70 85 9 38 37 14 8 300 299 289 327 110 103 136 230 301 314 275 150 162 170 150 160 191 203 199 199 178 172 178 184 187 182 191 203 203 205 205 205 203 198 195 195 198 198 200 199 200 203 204 203 203 204 204 204 204 206 207 202 198 195 189 189 193 199 206 207 217 228 236 242 236 231 226 230 233 227 224 225 233 228 239 271 293 300 313
271 185 132 346 293 268 285 341 355 341 336 336 54 75 55 56 12 300 256 277 257 227 173 126 179 243 269 275 268 146 152 159 141 158 181 182 190 186 182 180 178 185 186 184 192 204 205 203 203 206 205 202 199 197 200 201 203 203 203 205 206 206 206 206 204 204 206 209 208 203 200 196 191 196 202 207 216 217 224 226 224 230 229 229 229 227 223 216 214 217 220 222 249 283 292 287 110
294 261 93 293 289 287 329 354 326 325 326 313 42 71 55 81 29 286 305 313 307 299 239 145 164 257 287 270 265 136 134 136 139 165 180 165 187 178 181 191 185 185 187 188 191 202 209 205 202 205 206 206 203 200 203 204 205 207 208 207 207 208 208 208 206 206 207 209 210 204 201 200 199 203 210 216 220 215 221 225 212 211 219 220 217 215 210 207 208 212 212 225 259 282 261 166 124
266 315 2 284 297 307 322 327 301 314 309 328 83 95 83 89 272 305 348 329 308 302 316 72 32 31 285 280 278 144 129 125 150 173 172 148 190 191 178 196 198 187 189 195 194 199 209 210 206 206 207 208 206 204 206 207 208 211 211 210 210 209 210 210 208 208 209 209 209 205 201 203 208 213 219 221 221 221 231 239 223 202 211 213 209 207 205 204 205 208 213 235 263 257 197 148 128
300 333 5 292 313 306 294 281 291 315 299 52 93 147 119 74 260 352 343 304 300 298 158 326 11 36 277 268 292 137 140 170 180 181 166 160 193 209 181 191 210 190 191 202 199 199 205 214 213 210 210 209 207 206 208 210 211 212 214 214 213 212 211 211 210 210 210 210 208 203 200 203 210 217 224 226 230 234 238 241 225 203 204 208 207 205 205 203 201 210 222 245 255 217 177 146 131
321 330 358 284 298 293 269 251 290 320 296 60 107 143 115 239 173 174 274 277 287 88 216 252 166 117 287 282 307 125 182 190 191 182 179 186 194 212 192 192 212 196 196 205 204 203 203 210 216 215 214 212 208 207 209 211 212 214 216 216 215 215 213 214 214 213 210 209 207 204 203 206 212 219 226 230 233 236 237 236 226 210 201 204 207 203 205 204 199 210 229 245 231 198 172 152 138
347 325 344 269 279 286 274 259 276 267 297 70 137 143 85 277 145 173 250 293 294 314 305 249 180 210 272 281 279 148 182 187 187 192 194 205 197 211 209 203 212 204 203 207 208 208 205 206 211 216 215 213 208 207 210 212 213 214 215 216 216 217 216 217 217 214 211 209 207 207 211 215 220 224 227 231 233 235 236 235 230 219 204 200 205 202 202 201 192 201 230 237 210 193 174 159 148
32 331 247 255 261 265 267 266 255 271 324 26 171 164 2 320 98 147 1 7 280 289 277 259 230 229 243 252 254 216 203 197 196 207 201 212 207 210 220 216 213 211 212 210 210 209 207 206 206 212 213 210 207 207 212 214 215 214 215 216 216 217 218 219 218 214 212 210 209 211 217 221 224 226 228 232 235 237 238 235 233 224 206 197 201 200 197 197 188 193 224 227 201 190 173 164 163
183 199 210 240 241 252 302 319 322 344 332 330 316 324 333 321 289 118 14 274 254 272 270 270 261 244 243 245 245 225 208 207 204 209 207 208 206 204 213 218 216 216 218 217 213 209 209 208 205 207 210 210 206 207 211 214 218 218 217 216 215 217 218 219 217 213 212 212 215 217 220 223 226 229 231 234 237 238 239 237 235 225 207 196 199 199 194 193 188 188 217 220 195 189 182 179 171
203 226 228 239 243 271 313 310 312 334 323 318 317 320 329 326 323 12 297 278 277 280 277 285 283 265 255 246 231 207 201 212 210 210 212 210 208 207 211 214 216 217 219 222 220 213 209 208 206 204 207 210 207 206 208 210 215 217 218 218 217 217 218 218 216 214 214 216 220 221 222 224 227 231 234 236 238 238 237 236 236 226 208 198 199 199 193 194 188 186 212 213 190 194 196 188 174
209 215 238 246 253 280 297 298 303 311 313 309 303 325 333 315 315 301 274 282 277 273 275 283 283 276 282 281 238 205 203 212 211 212 216 220 220 218 219 214 214 218 221 227 226 218 212 210 209 207 206 207 207 206 207 208 211 215 217 218 219 218 218 218 217 216 217 219 222 224 224 224 226 230 233 236 236 234 233 233 231 225 210 200 202 201 195 195 189 187 208 207 191 201 204 192 177
202 193 227 253 280 296 299 303 309 316 340 331 306 320 314 297 291 276 275 280 264 257 260 266 277 283 296 318 312 263 229 217 208 209 217 226 229 228 231 228 226 229 227 224 223 221 218 216 213 210 207 206 206 206 206 208 209 214 217 217 218 218 219 218 217 217 218 220 223 225 225 223 224 224 225 227 227 227 228 227 224 218 209 201 202 203 199 197 195 198 207 201 195 204 206 198 187
238 232 242 257 277 284 281 291 312 357 355 317 293 297 300 300 286 270 259 257 254 256 266 274 281 288 291 298 307 301 288 259 215 205 215 224 231 234 238 238 238 238 225 215 218 223 223 220 216 212 209 207 207 206 206 207 207 210 214 215 215 217 218 220 219 219 219 220 221 223 224 222 221 219 218 220 221 222 224 223 218 211 205 202 203 206 204 204 206 210 210 202 202 206 207 205 197
230 244 250 260 268 274 278 288 313 72 313 283 280 292 301 297 284 274 252 248 255 257 264 271 272 275 281 284 286 284 280 273 243 218 222 226 232 235 238 238 236 233 222 216 219 222 223 222 219 214 210 208 209 207 206 207 207 208 211 211 213 215 217 219 221 221 221 220 220 221 223 220 214 213 214 217 218 218 220 220 215 207 203 203 204 206 208 210 213 216 212 205 207 209 208 208 200
244 248 259 274 278 277 278 288 289 254 276 273 278 292 286 277 281 282 264 257 263 264 263 266 270 271 274 275 269 267 265 265 257 243 238 238 241 242 242 240 237 234 225 222 223 220 221 222 219 216 213 210 209 209 207 208 209 209 210 210 213 215 215 217 219 221 221 220 220 219 218 214 209 208 211 216 216 213 215 216 212 205 202 205 205 206 209 212 215 219 215 205 208 212 212 210 204
260 263 269 271 271 277 284 291 285 271 271 267 262 269 265 264 278 282 273 269 266 265 266 265 268 270 269 268 263 259 256 256 259 255 247 245 247 247 244 240 236 232 227 227 226 220 221 223 219 215 214 212 210 209 209 209 210 211 211 210 212 214 212 214 217 218 219 218 217 215 212 209 208 208 209 214 214 208 208 211 209 202 200 204 207 204 206 213 213 217 217 207 210 215 213 211 207
266 283 302 304 298 301 305 297 284 274 268 258 245 254 260 264 279 277 268 265 265 260 261 261 263 266 262 262 261 257 254 249 250 255 253 247 243 239 236 236 232 229 231 231 229 226 223 222 219 215 215 215 211 210 209 210 211 211 212 211 211 212 211 213 216 216 216 214 213 212 210 208 207 207 208 211 213 206 203 205 205 200 198 203 209 202 201 212 212 213 215 208 210 216 214 212 211
334 325 319 312 303 294 283 276 273 268 264 256 247 254 261 259 261 272 267 262 264 262 261 261 258 262 263 265 264 260 258 250 244 250 256 247 231 230 231 231 232 235 237 233 231 231 226 221 219 218 216 215 213 212 211 210 210 211 212 212 211 211 211 212 214 214 214 212 212 211 210 209 207 208 208 209 212 206 200 202 201 198 198 203 210 203 200 210 212 212 213 210 211 215 214 212 212
359 347 321 296 287 281 271 265 263 260 254 241 231 250 269 270 239 253 265 268 269 272 275 273 265 262 261 265 266 263 259 258 251 240 238 238 229 232 233 232 237 243 244 242 240 235 228 223 220 218 216 214 214 213 213 212 212 212 213 213 212 211 211 210 211 212 212 212 212 212 210 209 207 208 208 208 211 206 201 201 199 198 200 203 207 204 203 209 211 213 213 210 211 212 212 210 211
350 347 307 285 281 272 266 261 254 251 241 196 161 251 268 257 244 248 254 261 264 260 262 264 262 261 258 263 272 272 266 267 262 235 228 241 238 238 241 244 249 253 255 257 252 241 234 229 223 220 217 215 214 213 213 213 213 214 214 214 213 211 211 211 211 211 212 211 211 212 211 209 207 208 208 208 209 206 202 201 199 198 200 202 204 203 205 208 209 210 209 206 206 207 208 206 206
291 269 261 280 289 271 266 263 244 243 224 125 114 216 241 246 255 259 258 257 265 260 260 263 261 266 271 277 285 284 282 279 269 254 252 258 250 249 267 279 280 278 282 280 261 245 240 235 227 222 219 216 216 215 213 214 214 214 215 216 215 213 212 212 211 211 212 211 211 212 212 210 209 208 207 208 208 206 205 203 201 200 201 203 204 205 207 207 206 207 204 203 202 204 208 206 204
266 264 247 255 277 274 275 275 192 184 214 121 125 233 246 262 269 276 286 280 280 276 275 276 271 273 276 280 282 278 280 278 280 302 9 36 33 23 13 0 349 334 321 305 281 256 239 235 230 223 220 219 218 217 215 215 215 215 216 216 217 216 214 214 213 212 212 212 212 212 212 211 210 209 208 208 208 208 207 205 204 203 204 206 206 208 209 207 206 207 205 203 200 202 207 206 204
256 268 268 232 240 265 277 277 163 166 266 145 134 217 242 247 268 303 323 308 296 288 282 278 275 275 278 285 288 279 282 313 23 37 39 38 33 27 19 10 3 359 355 342 324 296 241 231 233 226 223 222 220 219 216 216 216 215 216 217 218 218 216 216 215 213 213 214 215 215 214 212 211 209 209 210 209 209 209 208 207 206 206 208 209 210 210 208 207 208 208 207 202 200 205 206 203
240 236 256 251 250 262 276 293 174 170 152 183 191 226 246 242 271 296 296 284 278 275 274 271 270 275 282 289 290 290 319 28 43 42 38 35 32 28 22 16 10 6 8 5 360 346 281 230 235 231 228 227 224 223 218 216 216 215 216 218 219 220 219 218 217 216 215 215 216 217 217 215 213 210 209 212 213 212 212 211 209 208 209 210 211 212 211 211 210 209 208 209 208 204 203 203 197
246 235 249 258 267 284 297 327 313 165 139 220 225 229 246 248 261 270 269 270 268 263 265 265 268 275 277 283 298 321 36 55 49 41 37 34 30 27 24 22 17 17 20 19 19 18 20 1 253 228 224 230 227 226 223 217 215 213 214 215 218 221 223 221 219 220 220 219 219 221 222 219 216 214 213 216 217 214 213 213 212 210 210 211 212 213 213 212 211 212 209 207 210 207 203 200 194
270 272 277 284 286 300 297 294 314 311 273 263 258 251 260 265 275 284 279 278 274 263 264 273 282 281 280 299 355 44 63 63 53 46 41 34 29 25 23 23 22 23 27 30 35 39 42 40 34 122 212 232 228 225 224 216 211 210 209 209 214 216 218 218 218 221 223 223 224 224 226 224 220 219 218 218 218 216 214 214 214 212 212 211 212 213 212 210 210 212 211 208 207 207 208 204 197
264 271 275 281 283 286 285 280 285 292 283 278 278 277 288 298 295 287 278 272 266 264 268 278 282 282 299 10 57 73 72 69 61 53 45 37 31 26 23 25 27 28 31 35 40 44 44 43 45 50 41 287 233 220 216 208 204 206 205 205 210 213 215 217 217 219 222 225 227 228 230 230 226 223 221 220 219 218 215 215 215 214 214 212 212 213 211 210 210 210 211 209 203 202 207 204 198
265 272 272 274 281 280 282 285 284 292 291 283 291 293 299 303 291 278 272 269 269 272 270 265 273 294 41 75 80 80 79 69 60 53 44 36 31 27 25 26 28 30 32 36 39 40 41 45 48 47 46 46 146 210 209 205 201 203 206 209 213 216 219 221 223 224 224 226 230 232 235 234 229 223 222 222 221 219 218 217 216 217 216 214 215 216 214 213 213 212 210 209 203 196 197 199 198
284 288 288 288 284 279 282 284 284 299 306 291 307 297 294 296 285 275 273 276 273 266 260 262 286 50 76 88 85 80 76 62 53 48 39 34 29 27 27 27 28 29 30 35 37 36 39 46 47 45 48 54 52 96 171 195 206 209 211 216 221 223 225 228 230 231 229 229 232 236 240 237 230 226 225 225 224 222 221 220 219 220 219 217 218 219 217 214 212 211 207 205 203 199 197 196 196
286 293 297 292 280 283 285 276 285 350 30 309 309 297 294 287 277 274 275 273 263 259 269 37 68 75 66 70 77 73 66 57 50 41 33 33 29 27 28 29 29 28 30 34 37 38 40 44 43 42 46 51 49 60 85 81 138 196 194 183 193 201 208 220 224 227 228 230 233 237 241 240 238 235 232 229 227 225 224 223 223 224 223 220 219 219 217 214 212 210 208 206 201 199 199 198 198
259 266 275 275 275 284 277 280 336 357 320 293 293 289 284 276 272 271 272 261 251 259 73 71 74 78 72 68 66 61 60 54 49 40 29 29 29 28 28 28 30 30 32 33 34 36 38 41 42 39 41 47 50 57 70 61 66 137 183 170 131 152 162 200 215 222 227 229 231 234 238 242 243 242 239 234 231 229 228 227 227 227 226 224 222 220 217 215 214 211 209 208 201 195 196 198 202
260 245 246 259 267 270 275 321 345 333 304 293 301 294 257 260 273 280 280 264 252 87 86 81 76 79 78 73 66 60 58 50 46 41 26 26 29 28 27 28 31 32 33 32 33 35 39 43 44 40 38 42 47 51 60 58 55 71 93 62 40 249 260 269 264 256 246 241 239 239 242 245 244 245 243 239 236 235 233 231 230 229 229 227 224 223 221 219 217 214 211 209 205 201 199 198 201
275 251 247 260 276 286 304 340 350 339 306 293 9 336 255 257 303 308 290 275 286 87 95 91 81 76 70 71 71 67 61 52 46 39 31 30 31 32 29 27 29 32 32 33 35 37 42 47 46 43 40 40 43 44 53 61 59 58 57 57 56 43 5 324 308 286 257 255 255 248 250 252 250 249 247 246 243 240 238 236 233 232 232 231 228 226 225 222 219 217 214 211 209 209 205 198 199
266 256 290 304 326 331 329 346 359 321 274 258 350 315 265 257 278 272 264 261 95 87 87 82 77 72 68 69 68 70 66 57 48 40 34 31 31 34 30 26 26 30 32 34 37 38 41 47 49 47 43 40 42 44 49 56 54 54 55 56 56 47 35 22 11 8 336 288 287 261 255 258 257 255 252 250 249 246 243 241 238 235 235 236 233 229 227 226 224 222 219 215 213 212 209 202 202
244 256 359 0 1 342 326 330 271 248 276 277 245 233 260 273 247 247 247 215 103 94 84 78 83 80 76 70 62 66 67 62 55 44 34 27 28 34 34 29 27 30 34 36 37 37 38 43 49 51 48 46 46 47 53 54 50 50 52 55 58 53 44 35 23 18 16 345 299 282 276 271 267 267 261 257 255 251 248 246 243 240 238 239 237 234 231 229 229 227 223 220 217 215 212 210 208
220 80 28 15 1 315 298 280 259 270 304 288 231 190 237 276 250 251 235 143 109 116 116 110 114 101 94 86 71 62 58 59 58 49 40 26 23 30 35 32 29 32 37 39 38 38 39 42 48 51 50 49 49 51 59 62 57 52 52 56 54 47 41 38 35 27 24 20 344 297 286 280 276 278 276 269 263 257 254 251 248 245 242 241 240 239 237 233 232 231 228 225 221 219 217 216 215
202 12 6 331 273 255 263 257 266 300 290 265 237 186 195 288 276 271 139 119 135 141 127 120 113 100 97 94 86 74 57 50 51 50 45 34 26 27 32 33 31 32 37 41 40 38 39 41 44 48 47 48 50 52 58 65 65 60 58 60 54 46 39 34 34 30 21 15 5 346 319 298 284 280 281 281 275 266 260 257 255 251 247 245 243 243 241 238 235 234 234 231 226 223 221 220 220
116 359 349 315 270 230 230 239 240 326 268 257 249 199 179 278 285 269 51 131 160 146 133 130 109 87 78 78 79 75 65 50 48 48 42 38 34 30 30 30 30 32 36 40 39 35 37 40 42 46 45 46 49 51 53 57 60 59 59 62 58 50 44 37 34 28 17 9 3 356 342 326 308 291 284 283 285 280 270 264 262 259 255 250 247 246 245 244 241 238 238 237 232 227 225 224 224
70 35 359 334 303 197 107 308 106 221 251 272 310 215 171 232 283 314 338 228 165 155 153 147 126 104 88 75 67 61 56 49 41 38 32 32 32 30 27 26 27 30 33 37 36 33 35 40 44 45 44 44 46 48 49 51 54 54 55 59 59 53 46 41 35 26 19 13 6 359 352 344 334 319 302 291 288 288 282 276 271 267 263 257 252 250 248 247 246 243 241 241 238 233 228 227 226
102 130 86 346 321 336 323 293 187 223 241 233 344 20 254 244 275 283 287 283 135 129 136 135 125 115 105 90 82 69 58 54 43 35 29 23 23 22 21 21 23 27 29 32 33 29 32 40 45 46 45 44 46 47 47 47 48 48 48 51 54 52 48 44 37 25 18 14 6 360 356 351 343 337 329 318 307 296 286 283 280 275 272 269 262 257 254 251 250 248 245 244 243 239 233 230 229
155 165 159 168 274 300 267 260 260 252 263 246 197 3 300 259 272 276 295 31 61 76 94 106 107 107 103 96 90 77 68 63 53 45 33 22 21 19 20 21 20 22 25 28 27 24 28 37 43 45 45 45 47 49 48 48 48 48 47 48 49 48 44 40 33 23 15 9 2 354 349 345 338 333 328 325 325 317 299 287 283 280 279 278 272 265 261 257 253 250 248 247 246 245 240 236 234
189 188 143 157 208 244 257 267 274 275 284 285 286 308 276 229 243 118 95 76 68 75 80 85 88 93 96 93 84 74 65 54 49 47 37 30 28 23 24 25 20 20 21 22 21 18 25 34 39 42 42 42 45 48 50 50 49 50 51 50 50 48 44 39 31 24 19 14 7 358 350 344 334 324 317 312 314 319 315 298 284 281 284 283 278 272 266 261 256 253 250 248 248 249 247 243 239
219 88 93 148 204 211 263 275 262 280 294 283 265 256 253 257 272 245 110 92 82 83 85 88 87 84 84 81 73 69 58 43 39 36 28 31 32 29 27 25 22 20 19 18 16 13 22 32 38 41 41 43 44 45 48 50 50 52 52 51 51 49 46 42 35 30 27 22 15 7 355 344 335 326 319 312 304 304 309 305 293 288 290 288 284 278 271 266 261 256 253 250 248 248 248 248 246
82 77 153 231 199 150 254 278 263 263 270 266 254 264 279 294 287 287 97 96 94 93 90 88 85 79 73 68 62 54 47 44 39 30 26 31 32 31 28 24 22 20 16 14 14 16 25 32 36 38 41 45 46 45 45 46 48 49 49 50 50 49 47 42 37 34 33 30 26 18 5 353 344 334 324 318 311 304 299 299 296 294 293 292 288 283 276 271 266 261 257 254 251 249 248 249 249
120 201 213 247 338 87 209 259 269 254 252 257 259 275 289 291 284 25 111 121 115 103 98 92 84 79 74 69 63 49 37 45 50 39 30 36 38 32 26 23 20 17 10 10 17 25 32 37 39 39 40 42 43 44 44 42 42 43 44 46 46 46 45 42 40 37 36 35 31 25 17 8 359 349 338 329 321 315 308 301 298 297 295 292 290 286 281 276 270 265 261 258 256 253 252 251 251
124 202 135 105 173 280 243 199 213 245 256 259 248 264 276 267 278 328 122 141 124 110 107 101 93 92 90 90 98 101 112 79 80 69 32 40 46 27 11 5 1 1 1 6 18 26 32 36 39 41 41 41 41 41 42 39 37 36 36 38 40 41 41 39 38 36 35 34 31 26 21 15 10 4 354 345 335 327 320 313 305 301 299 295 291 288 284 281 275 270 265 262 259 256 254 254 253
68 48 12 123 176 212 226 230 240 243 259 269 254 256 267 281 340 7 29 84 106 104 96 89 90 104 114 133 148 165 185 196 199 160 160 38 26 1 353 347 346 352 356 3 12 19 26 31 34 37 37 38 39 38 38 38 37 35 34 35 35 35 35 34 33 31 30 30 28 25 23 19 16 12 3 355 349 341 332 324 315 307 301 298 295 291 288 285 280 275 270 266 264 260 257 256 255
82 58 322 254 221 253 275 268 244 237 257 268 265 257 250 337 10 29 44 52 72 88 91 87 91 111 137 164 173 191 199 205 230 224 206 243 305 319 318 321 329 339 345 354 6 13 23 29 32 34 33 34 34 33 33 34 34 34 32 32 31 30 29 29 28 27 26 25 23 21 19 16 15 13 10 5 360 352 343 333 324 317 310 303 298 295 292 288 283 279 275 271 267 263 260 259 258
162 169 209 230 228 231 268 262 236 230 247 243 255 261 243 136 355 59 76 72 85 104 117 130 156 172 186 193 189 196 201 200 214 217 211 229 259 278 280 283 289 299 317 339 357 5 14 21 25 28 29 29 29 29 30 30 31 32 30 29 28 27 26 24 23 21 20 19 18 16 14 12 11 10 9 7 3 359 353 346 336 328 321 314 307 300 295 290 285 281 278 275 271 267 264 262 260